timestamp,surface_pressure_avg,surface_temp_avg,battery_voltage,lat,long
2019-05-29 00:00:00+00:00,238.9131,3.09,13.13,47.84626,-54.09684
2019-05-29 00:10:00+00:00,235.3331,3.09,12.97,47.84626,-54.09684
2019-05-29 00:20:00+00:00,234.1281,3.09,12.97,47.84626,-54.09684
2019-05-29 00:30:00+00:00,230.7731,3.1,12.97,47.84626,-54.09684
2019-05-29 00:40:00+00:00,226.6964,3.1,12.97,47.84626,-54.09684
2019-05-29 00:50:00+00:00,225.0664,3.1,12.97,47.84626,-54.09684
2019-05-29 01:00:00+00:00,224.6614,3.17,12.89,47.84626,-54.09684
2019-05-29 01:10:00+00:00,224.7081,3.2,12.81,47.84626,-54.09684
2019-05-29 01:20:00+00:00,223.4065,3.2,12.89,47.84626,-54.09684
2019-05-29 01:30:00+00:00,223.2698,3.22,12.89,47.84626,-54.09684
2019-05-29 01:40:00+00:00,222.2848,3.24,12.97,47.84626,-54.09684
2019-05-29 01:50:00+00:00,224.1181,3.24,12.97,47.84626,-54.09684
2019-05-29 02:00:00+00:00,226.8265,3.26,12.89,47.84626,-54.09684
2019-05-29 02:10:00+00:00,229.1881,3.28,12.81,47.84626,-54.09684
2019-05-29 02:20:00+00:00,227.6713,3.29,12.89,47.84626,-54.09684
2019-05-29 02:30:00+00:00,226.4481,3.3,12.89,47.84626,-54.09684
2019-05-29 02:40:00+00:00,227.5181,3.3,12.89,47.84626,-54.09684
2019-05-29 02:50:00+00:00,230.7381,3.3,12.89,47.84626,-54.09684
2019-05-29 03:00:00+00:00,231.0963,3.3,12.81,47.84626,-54.09684
2019-05-29 03:10:00+00:00,230.8882,3.3,12.73,47.84626,-54.09684
2019-05-29 03:20:00+00:00,231.5614,3.3,12.89,47.84626,-54.09684
2019-05-29 03:30:00+00:00,231.3414,3.3,12.89,47.84626,-54.09684
2019-05-29 03:40:00+00:00,234.7314,3.33,12.89,47.84626,-54.09684
2019-05-29 03:50:00+00:00,242.4781,3.35,12.89,47.84626,-54.09684
2019-05-29 04:00:00+00:00,246.9131,3.39,12.81,47.84626,-54.09684
2019-05-29 04:10:00+00:00,249.8347,3.4,12.73,47.84626,-54.09684
2019-05-29 04:20:00+00:00,253.9564,3.4,12.81,47.84626,-54.09684
2019-05-29 04:30:00+00:00,260.1198,3.4,12.81,47.84626,-54.09684
2019-05-29 04:40:00+00:00,262.3848,3.3,12.89,47.84626,-54.09684
2019-05-29 04:50:00+00:00,265.4365,3.29,12.89,47.84626,-54.09684
2019-05-29 05:00:00+00:00,268.6481,3.2,12.81,47.84626,-54.09684
2019-05-29 05:10:00+00:00,275.6064,3.2,12.73,47.84626,-54.09684
2019-05-29 05:20:00+00:00,281.363,3.1,12.81,47.84626,-54.09684
2019-05-29 05:30:00+00:00,287.7013,3.1,12.81,47.84626,-54.09684
2019-05-29 05:40:00+00:00,293.7897,3.1,12.81,47.84626,-54.09684
2019-05-29 05:50:00+00:00,298.613,3.1,12.81,47.84626,-54.09684
2019-05-29 06:00:00+00:00,301.163,3.1,12.73,47.84626,-54.09684
2019-05-29 06:10:00+00:00,302.6746,3.1,12.65,47.84626,-54.09684
2019-05-29 06:20:00+00:00,306.0031,3.1,12.73,47.84626,-54.09684
2019-05-29 06:30:00+00:00,309.9196,3.1,12.73,47.84626,-54.09684
2019-05-29 06:40:00+00:00,313.1412,3.1,12.81,47.84626,-54.09684
2019-05-29 06:50:00+00:00,310.3063,3.1,12.81,47.84626,-54.09684
2019-05-29 07:00:00+00:00,309.0197,3.1,12.73,47.84626,-54.09684
2019-05-29 07:10:00+00:00,313.3564,3.14,12.65,47.84626,-54.09684
2019-05-29 07:20:00+00:00,316.8963,3.18,12.73,47.84626,-54.09684
2019-05-29 07:30:00+00:00,317.1164,3.19,12.73,47.84626,-54.09684
2019-05-29 07:40:00+00:00,315.8596,3.2,12.73,47.84626,-54.09684
2019-05-29 07:50:00+00:00,316.8947,3.2,12.81,47.84626,-54.09684
2019-05-29 08:00:00+00:00,316.3563,3.2,12.73,47.84626,-54.09684
2019-05-29 08:10:00+00:00,316.8412,3.2,12.65,47.84626,-54.09684
2019-05-29 08:20:00+00:00,317.5698,3.19,12.73,47.84626,-54.09684
2019-05-29 08:30:00+00:00,316.7163,3.2,12.73,47.84626,-54.09684
2019-05-29 08:40:00+00:00,313.2181,3.2,12.81,47.84626,-54.09684
2019-05-29 08:50:00+00:00,309.2763,3.19,12.81,47.84626,-54.09684
2019-05-29 09:00:00+00:00,308.4565,3.16,12.73,47.84626,-54.09684
2019-05-29 09:10:00+00:00,307.463,3.14,12.65,47.84626,-54.09684
2019-05-29 09:20:00+00:00,304.728,3.16,12.73,47.84626,-54.09684
2019-05-29 09:30:00+00:00,300.4131,3.17,12.73,47.84626,-54.09684
2019-05-29 09:40:00+00:00,296.2214,3.17,12.81,47.84626,-54.09684
2019-05-29 09:50:00+00:00,290.353,3.17,12.81,47.84626,-54.09684
2019-05-29 10:00:00+00:00,289.5964,3.18,12.81,47.84626,-54.09684
2019-05-29 10:10:00+00:00,286.283,3.19,12.73,47.84626,-54.09684
2019-05-29 10:20:00+00:00,279.7997,3.2,12.81,47.84626,-54.09684
2019-05-29 10:30:00+00:00,272.7048,3.26,12.89,47.84626,-54.09684
2019-05-29 10:40:00+00:00,269.6614,3.27,12.97,47.84626,-54.09684
2019-05-29 10:50:00+00:00,264.6631,3.26,13.05,47.84626,-54.09684
2019-05-29 11:00:00+00:00,257.6281,3.28,13.13,47.84626,-54.09684
2019-05-29 11:10:00+00:00,252.6098,3.29,13.21,47.84626,-54.09684
2019-05-29 11:20:00+00:00,249.6214,3.29,13.53,47.84626,-54.09684
2019-05-29 11:30:00+00:00,248.5731,3.3,13.84,47.84626,-54.09684
2019-05-29 11:40:00+00:00,242.6214,3.38,13.92,47.84626,-54.09684
2019-05-29 11:50:00+00:00,237.0147,3.4,14.0,47.84626,-54.09684
2019-05-29 12:00:00+00:00,233.3264,3.44,14.08,47.84626,-54.09684
2019-05-29 12:10:00+00:00,232.2564,3.48,14.08,47.84626,-54.09684
2019-05-29 12:20:00+00:00,226.8598,3.5,14.24,47.84626,-54.09684
2019-05-29 12:30:00+00:00,224.0565,3.59,14.32,47.84626,-54.09684
2019-05-29 12:40:00+00:00,220.8298,3.7,14.4,47.84626,-54.09684
2019-05-29 12:50:00+00:00,218.8815,3.7,14.64,47.84626,-54.09684
2019-05-29 13:00:00+00:00,219.6715,3.7,15.11,47.84626,-54.09684
2019-05-29 13:10:00+00:00,219.2948,3.7,14.48,47.84626,-54.09684
2019-05-29 13:20:00+00:00,215.6431,3.7,14.8,47.84626,-54.09684
2019-05-29 13:30:00+00:00,217.1364,3.7,14.64,47.84626,-54.09684
2019-05-29 13:40:00+00:00,220.8864,3.7,14.72,47.84626,-54.09684
2019-05-29 13:50:00+00:00,216.9564,3.7,14.64,47.84626,-54.09684
2019-05-29 14:00:00+00:00,214.1181,3.77,14.88,47.84626,-54.09684
2019-05-29 14:10:00+00:00,221.6648,3.79,14.48,47.84626,-54.09684
2019-05-29 14:20:00+00:00,225.7247,3.8,14.8,47.84626,-54.09684
2019-05-29 14:30:00+00:00,221.3798,3.89,14.96,47.84626,-54.09684
2019-05-29 14:40:00+00:00,220.2748,3.95,14.88,47.84626,-54.09684
2019-05-29 14:50:00+00:00,226.0697,4.0,14.72,47.84626,-54.09684
2019-05-29 15:00:00+00:00,229.1897,4.0,14.56,47.84626,-54.09684
2019-05-29 15:10:00+00:00,224.7848,4.08,14.4,47.84626,-54.09684
2019-05-29 15:20:00+00:00,224.8281,4.13,14.56,47.84626,-54.09684
2019-05-29 15:30:00+00:00,232.9881,4.17,14.64,47.84626,-54.09684
2019-05-29 15:40:00+00:00,240.2748,4.2,14.56,47.84626,-54.09684
2019-05-29 15:50:00+00:00,238.8664,4.2,14.64,47.84626,-54.09684
2019-05-29 16:00:00+00:00,235.5298,4.22,14.48,47.84626,-54.09684
2019-05-29 16:10:00+00:00,240.1264,4.2,14.32,47.84626,-54.09684
2019-05-29 16:20:00+00:00,248.2747,3.8,14.4,47.84626,-54.09684
2019-05-29 16:30:00+00:00,251.4098,3.5,14.56,47.84626,-54.09684
2019-05-29 16:40:00+00:00,254.8531,3.4,14.64,47.84626,-54.09684
2019-05-29 16:50:00+00:00,258.938,3.4,14.48,47.84626,-54.09684
2019-05-29 17:00:00+00:00,264.1864,3.3,14.56,47.84626,-54.09684
2019-05-29 17:10:00+00:00,268.6531,3.3,14.32,47.84626,-54.09684
2019-05-29 17:20:00+00:00,271.638,3.3,14.48,47.84626,-54.09684
2019-05-29 17:30:00+00:00,275.7831,3.3,14.48,47.84626,-54.09684
2019-05-29 17:40:00+00:00,280.1915,3.3,14.48,47.84626,-54.09684
2019-05-29 17:50:00+00:00,281.4664,3.3,14.4,47.84626,-54.09684
2019-05-29 18:00:00+00:00,281.0464,3.3,14.32,47.84626,-54.09684
2019-05-29 18:10:00+00:00,286.4047,3.3,14.32,47.84626,-54.09684
2019-05-29 18:20:00+00:00,289.6547,3.27,14.4,47.84626,-54.09684
2019-05-29 18:30:00+00:00,292.033,3.2,14.32,47.84626,-54.09684
2019-05-29 18:40:00+00:00,294.683,3.2,14.4,47.84626,-54.09684
2019-05-29 18:50:00+00:00,299.2097,3.2,14.4,47.84626,-54.09684
2019-05-29 19:00:00+00:00,306.293,3.2,14.32,47.84626,-54.09684
2019-05-29 19:10:00+00:00,313.3047,3.2,14.16,47.84626,-54.09684
2019-05-29 19:20:00+00:00,316.3979,3.2,14.24,47.84626,-54.09684
2019-05-29 19:30:00+00:00,315.8946,3.25,14.32,47.84626,-54.09684
2019-05-29 19:40:00+00:00,320.6647,3.28,14.32,47.84626,-54.09684
2019-05-29 19:50:00+00:00,321.073,3.29,14.24,47.84626,-54.09684
2019-05-29 20:00:00+00:00,315.1364,3.3,14.16,47.84626,-54.09684
2019-05-29 20:10:00+00:00,317.1913,3.3,14.08,47.84626,-54.09684
2019-05-29 20:20:00+00:00,322.9996,3.3,14.08,47.84626,-54.09684
2019-05-29 20:30:00+00:00,323.203,3.3,14.08,47.84626,-54.09684
2019-05-29 20:40:00+00:00,319.8813,3.3,14.16,47.84626,-54.09684
2019-05-29 20:50:00+00:00,323.8898,3.29,14.08,47.84626,-54.09684
2019-05-29 21:00:00+00:00,323.7064,3.22,14.0,47.84626,-54.09684
2019-05-29 21:10:00+00:00,319.383,3.27,13.92,47.84626,-54.09684
2019-05-29 21:20:00+00:00,316.9547,3.28,13.92,47.84626,-54.09684
2019-05-29 21:30:00+00:00,319.7813,3.22,13.92,47.84626,-54.09684
2019-05-29 21:40:00+00:00,318.1846,3.25,14.0,47.84626,-54.09684
2019-05-29 21:50:00+00:00,313.423,3.28,13.92,47.84626,-54.09684
2019-05-29 22:00:00+00:00,310.6379,3.28,13.84,47.84626,-54.09684
2019-05-29 22:10:00+00:00,309.7463,3.27,13.76,47.84626,-54.09684
2019-05-29 22:20:00+00:00,303.7797,3.29,13.76,47.84626,-54.09684
2019-05-29 22:30:00+00:00,297.0347,3.29,13.68,47.84626,-54.09684
2019-05-29 22:40:00+00:00,298.1063,3.27,13.68,47.84626,-54.09684
2019-05-29 22:50:00+00:00,293.8047,3.27,13.68,47.84626,-54.09684
2019-05-29 23:00:00+00:00,282.8747,3.27,13.6,47.84626,-54.09684
2019-05-29 23:10:00+00:00,272.2997,3.24,13.37,47.84626,-54.09684
2019-05-29 23:20:00+00:00,269.8981,3.24,13.37,47.84626,-54.09684
2019-05-29 23:30:00+00:00,265.593,3.24,13.37,47.84626,-54.09684
2019-05-29 23:40:00+00:00,258.9148,3.21,13.29,47.84626,-54.09684
2019-05-29 23:50:00+00:00,253.8514,3.2,13.29,47.84626,-54.09684
